OpenBCM V1.08-5-g2f4a (Linux)

Packet Radio Mailbox

IZ3LSV

[San Dona' di P. JN]

 Login: GUEST





  
I0OJJ  > KEPS     27.07.25 01:50l 343 Lines 16342 Bytes #79 (0) @ AMSAT
BID : ORB25208.1
Read: GUEST
Subj: 2Line Orbital Elements 25208.AMSAT
Path: IZ3LSV<IK6IHL<IK7NXU<HB9ON<HB9ON<PI8ZTM<IR0AAB<I0OJJ
Sent: 250727/0025z @:I0OJJ.ITA.EU [Rome] obcm1.08-10-g596e
From: I0OJJ @ I0OJJ.ITA.EU (Gustavo)
To:   KEPS @ AMSAT
X-Info: This message was generated automatically


QST de W1STR

AMSAT Orbital Elements for Amateur Satellites in TLE Format
From Orbital Analysis Office
New England Sci-Tech STEM Education Center
Natick, MA July 27, 2025
To all radio amateurs


These element sets describe the orbits of various satellites 
in use by the amateur radio community. For details see:
www.amsat.org/keplerian-elements-formats/

A daily update of element sets is available at:
www.amsat.org/tle/daily-bulletin.txt
or without bulletin text:
www.amsat.org/tle/dailytle.txt


AO-07
1 07530U 74089B   25207.57825794 -.00000037  00000-0  60441-4 0  9996
2 07530 101.9944 212.3440 0012476  34.1458  77.0738 12.53690416319952
UO-11
1 14781U 84021B   25207.22444333  .00001248  00000-0  13677-3 0  9999
2 14781  97.7576 172.6815 0007870 171.0250 189.1109 14.89494871229582
AO-27
1 22825U 93061C   25207.77046766  .00000116  00000-0  61489-4 0  9997
2 22825  98.7340 269.5550 0007931 342.2160  17.8744 14.30812079660730
FO-29
1 24278U 96046B   25207.55302577 -.00000028  00000-0  87435-5 0  9991
2 24278  98.5692  95.2549 0349268 220.7768 136.6750 13.53250831429376
NOAA-15
1 25338U 98030A   25207.86028968  .00000210  00000-0  10412-3 0  9998
2 25338  98.5339 231.8500 0009535 215.2288 144.8264 14.27002367415145
GO-32
1 25397U 98043D   25207.54753583  .00000064  00000-0  47860-4 0  9995
2 25397  98.9734 187.6544 0002365  80.7145 279.4300 14.24324632405199
ISS
1 25544U 98067A   25207.84344794  .00013732  00000-0  24705-3 0  9996
2 25544  51.6348 110.5189 0001998 119.2234 240.8955 15.50128866521310
NO-44
1 26931U 01043C   25207.51899003  .00000150  00000-0  87055-4 0  9995
2 26931  67.0521   6.4751 0006397 276.8299  83.2075 14.31753245243981
SO-50
1 27607U 02058C   25206.92139793  .00000955  00000-0  13574-3 0  9997
2 27607  64.5528  57.4762 0061295 324.0124  35.6861 14.81734624216305
CO-55
1 27844U 03031E   25206.91347858  .00000300  00000-0  14940-3 0  9996
2 27844  98.6765 214.5899 0010689  57.2754 302.9453 14.24025589145231
CO-57
1 27848U 03031J   25206.95389489  .00000256  00000-0  13221-3 0  9991
2 27848  98.6792 214.6004 0010725  72.8128 287.4223 14.23356294145010
RS-22
1 27939U 03042A   25207.75508995  .00001103  00000-0  18220-3 0  9994
2 27939  98.3319  18.3578 0010653 215.4096 155.5577 14.72443664167773
CO-58
1 28895U 05043F   25207.38273204  .00001679  00000-0  28077-3 0  9999
2 28895  98.2556 352.3355 0015089 154.4376 205.7579 14.71140666 54053
CO-65
1 32785U 08021C   25207.22444453  .00004314  00000-0  30977-3 0  9991
2 32785  97.7870 178.7526 0011150  60.6654 299.5684 15.04796704936167
CO-66
1 32791U 08021J   25206.94282802  .00011512  00000-0  54316-3 0  9995
2 32791  97.7298 188.0539 0004294  39.7466 320.4081 15.19623876937616
RS-30
1 32953U 08025A   25207.72360804  .00000005  00000-0 -34295-4 0  9996
2 32953  82.5018 197.8600 0018193 305.5263  54.4119 12.43166592779393
NOAA-19
1 33591U 09005A   25207.84643823  .00000200  00000-0  13040-3 0  9992
2 33591  98.9951 272.8110 0013037 227.0799 132.9280 14.13394520848787
SRMSAT
1 37841U 11058D   25207.18470954  .00000388  00000-0  66862-4 0  9993
2 37841  19.9707 232.5242 0011603 216.8312 199.9974 14.11446999711928
ZACUBE-1
1 39417U 13066B   25207.44719736  .00003614  00000-0  31363-3 0  9990
2 39417  97.7835 164.2307 0041852 255.0010 104.6577 14.97022471631929
Delfi-N3xt
1 39428U 13066N   25207.74753511  .00004203  00000-0  42644-3 0  9993
2 39428  97.8323 124.8832 0083238 204.1626 155.5678 14.88848503626272
GOMX-1
1 39430U 13066Q   25207.73103772  .00002037  00000-0  32000-3 0  9991
2 39430  97.6789  63.4934 0133285  42.0176 319.1161 14.67801125622320
LO-74
1 39440U 13066AA  25207.81865687  .00004135  00000-0  41682-3 0  9998
2 39440  97.8507 152.0630 0062451  25.6455 334.7837 14.90228547629677
AO-73
1 39444U 13066AE  25207.16198261  .00005701  00000-0  42268-3 0  9998
2 39444  97.7864 169.2763 0040264 226.7343 133.0520 15.02854121631175
DTUSAT-2
1 40030U 14033W   25207.45299005  .00005876  00000-0  37820-3 0  9997
2 40030  98.0582 181.5630 0007144 258.5032 101.5393 15.08772419603977
EO-80
1 40032U 14033Y   25207.53714038  .00006860  00000-0  43976-3 0  9999
2 40032  98.0463 181.2411 0008151 190.5038 169.6020 15.08845779603973
LILACSAT-2
1 40908U 15049K   25207.86719470  .00012742  00000-0  32257-3 0  9996
2 40908  97.5041 229.3815 0008521   3.4135 356.7167 15.39852782545505
IO-86
1 40931U 15052B   25151.18580175  .00001241  00000-0  78118-4 0  9996
2 40931   6.0006  24.0987 0012733 338.8432  21.1169 14.78805930523047
Horyu-4
1 41340U 16012D   25207.21128414  .00021537  00000-0  54321-3 0  9997
2 41340  30.9956 177.9414 0007054 193.6348 166.4108 15.38591668519978
Lapan A3
1 41603U 16040E   25207.85178848  .00003707  00000-0  12933-3 0  9998
2 41603  97.1377 210.6141 0012879  99.8195 260.4501 15.30132697505019
CAS-2T
1 41847U 16066G   25207.81594500  .00001198  00000-0  17797-3 0  9994
2 41847  98.4185 281.8615 0346292  35.7745 326.6116 14.43615219457837
CAS-4B
1 42759U 17034B   25207.84859905  .00097108  00000-0  78203-3 0  9994
2 42759  43.0055  38.9155 0022894 264.2177  95.6080 15.69536053450012
CAS-4A
1 42761U 17034D   25207.83704287  .00110199  00000-0  82120-3 0  9997
2 42761  43.0093  35.5352 0023972 268.6905  91.1217 15.71296461450049
TechnoSat
1 42829U 17042E   25207.48344503  .00004161  00000-0  32129-3 0  9998
2 42829  97.3904  13.9428 0017421 119.8200 240.4760 15.01949592437767
AO-91
1 43017U 17073E   25207.19883134  .00009250  00000-0  46678-3 0  9996
2 43017  97.5175  76.7931 0170801   8.2433 352.1536 15.05429774416225
S-Net D
1 43186U 18014G   25207.48604739  .00005210  00000-0  30522-3 0  9996
2 43186  97.5573 109.9146 0010595  68.5636 291.6723 15.12190694409465
S-Net B
1 43187U 18014H   25207.16120481  .00004677  00000-0  27453-3 0  9994
2 43187  97.5580 109.5671 0011283  65.1642 295.0761 15.12167313409415
S-Net A
1 43188U 18014J   25207.68478859  .00005333  00000-0  31223-3 0  9997
2 43188  97.5586 110.2415 0011121  64.2856 295.9521 15.12198322409490
S-Net C
1 43189U 18014K   25207.16372943  .00004496  00000-0  26399-3 0  9995
2 43189  97.5603 109.7479 0012597  58.7346 301.5116 15.12163416407964
Ten-Koh
1 43677U 18084G   25207.07076862  .00002219  00000-0  18004-3 0  9990
2 43677  98.0840  21.1656 0009060 108.0083 252.2127 15.00747959367211
PO-101
1 43678U 18084H   25207.73404993  .00001451  00000-0  12661-3 0  9994
2 43678  98.1067  25.6688 0008975 122.0093 238.2002 14.98509969367443
QO-100
1 43700U 18090A   25207.24836369  .00000133  00000-0  00000+0 0  9995
2 43700   0.0238  81.1746 0001022  40.8038 297.4073  1.00269338 24655
MinXSS-2
1 43758U 18099A   25206.74620581  .00014784  00000-0  56062-3 0  9998
2 43758  97.4995 272.9625 0010890   0.8678 359.2577 15.26919030364010
AO-95
1 43770U 18099N   25207.66146181  .00008617  00000-0  42706-3 0  9991
2 43770  97.4883 265.2402 0011528  55.4016 304.8303 15.17934891363697
RANGE-A
1 43773U 18099R   25207.14283225  .00004860  00000-0  30714-3 0  9990
2 43773  97.4449 254.1967 0012012  39.2336 320.9762 15.09441235363240
MOVE-II
1 43780U 18099Y   25194.80194206  .15913345  26116-5  37118-3 0  9995
2 43780  97.4526 273.8800 0018736 270.1080  89.8075 16.44566529363241
SNUSat 2
1 43782U 18099AA  25207.10798411  .00006826  00000-0  36675-3 0  9990
2 43782  97.4566 261.0611 0011491   0.5115 359.6127 15.15168080363547
SnugLite
1 43784U 18099AC  25207.15400405  .00008461  00000-0  41611-3 0  9993
2 43784  97.4380 260.7643 0003317  22.5362 337.6018 15.18261350363700
ITASat 1
1 43786U 18099AE  25207.56307110  .00006673  00000-0  37612-3 0  9998
2 43786  97.4533 260.8768 0015159  49.2920 310.9625 15.13421164363562
EAGLET 1
1 43790U 18099AJ  25207.09414819  .00004458  00000-0  28251-3 0  9994
2 43790  97.4733 260.2175 0012701  36.5999 323.6096 15.09376539363080
ESEO
1 43792U 18099AL  25207.08101584  .00002371  00000-0  18149-3 0  9994
2 43792  97.4435 252.8377 0012432   7.2505 352.8898 15.02747210362805
CSIM
1 43793U 18099AM  25207.82423484  .00725960  22821-3  18355-2 0  9995
2 43793  97.4694 289.8691 0006139 273.5889  86.4685 15.95534916365112
JO-97
1 43803U 18099AX  25207.15446490  .00009895  00000-0  43979-3 0  9990
2 43803  97.4634 265.8341 0006629 354.6629   5.4535 15.21701228363856
Suomi 100
1 43804U 18099AY  25207.37758774  .00009392  00000-0  44962-3 0  9991
2 43804  97.4697 265.2144 0011481 352.2638   7.8418 15.19115425363803
ISAT
1 43879U 18111D   25207.49910901  .00020070  00000-0  66231-3 0  9992
2 43879  97.5919 122.9703 0009623  45.9648 314.2384 15.31411984358854
UWE-4
1 43880U 18111E   25207.21462805  .00014530  00000-0  54894-3 0  9995
2 43880  97.5867 120.8202 0013194  54.2231 306.0232 15.27022507358741
Sparrow
1 43881U 18111F   25207.50718700  .00021348  00000-0  67579-3 0  9995
2 43881  97.6072 126.0439 0008879  80.3053 279.9191 15.32742011358979
Prox-1
1 44339U 19036A   25207.39893999  .00010532  00000-0  13036-2 0  9993
2 44339  23.9966 114.0727 0007379 245.3472 114.6256 14.80721426325050
SONATE
1 44400U 19038Q   25185.47540524  .09032085  27445-5  31847-3 0  9995
2 44400  97.6609 216.4776 0012462 246.7970 113.2018 16.43248376333575
Taurus 1
1 44530U 19059C   25207.88711843  .00006873  00000-0  12543-2 0  9997
2 44530  98.6119 349.5509 0008427 242.9757 117.0586 14.66289895310879
Duchifat 3
1 44854U 19089C   25207.89208196  .00060258  00000-0  10289-2 0  9994
2 44854  36.9420  53.5700 0006590 330.9255  29.1135 15.50229540310286
TO-108
1 44881U 19093C   25207.84132961  .00001020  00000-0  12353-3 0  9997
2 44881  97.7909 282.5009 0015207  78.1235 282.1685 14.85680120303097
